• En España
  • Lista de países
  • Para 7 días
  • Temperatura del agua
  • Mapa Satelital
  • El tiempo en el mapa
  • Informadores
  • user-avatar
    Iniciar sesión

    Tiempo cada hora Malanje

    Hoy, 19 Octubre, Viernes

    Tiempo Temperatura Precipitaciones Viento Presión Humedad
    00:00 +21°C° 0 mm 1 mps 664 mmHg 89%
    01:00 +20°C° 0 mm 1 mps 664 mmHg 92%
    02:00 +20°C° 0 mm 1 mps 664 mmHg 93%
    03:00 +20°C° 0 mm 1 mps 664 mmHg 95%
    04:00 +20°C° 0 mm 1 mps 664 mmHg 96%
    05:00 +21°C° 0 mm 1 mps 665 mmHg 92%
    06:00 +20°C° 0 mm 2 mps 665 mmHg 89%
    07:00 +21°C° 0 mm 2 mps 666 mmHg 85%
    08:00 +25°C° 0 mm 1 mps 666 mmHg 73%
    09:00 +28°C° 0 mm 1 mps 667 mmHg 61%
    10:00 +31°C° 0 mm 1 mps 667 mmHg 48%
    11:00 +32°C° 0 mm 1 mps 667 mmHg 45%
    12:00 +33°C° 0 mm 1 mps 666 mmHg 42%
    13:00 +34°C° 0 mm 1 mps 665 mmHg 38%
    14:00 +33°C° 0 mm 1 mps 665 mmHg 39%
    15:00 +32°C° 0 mm 2 mps 664 mmHg 40%
    16:00 +32°C° 0 mm 2 mps 663 mmHg 41%
    17:00 +30°C° 0 mm 1 mps 664 mmHg 46%
    18:00 +28°C° 0 mm 1 mps 664 mmHg 51%
    19:00 +26°C° 0 mm 1 mps 664 mmHg 56%
    20:00 +25°C° 0.6 mm 1 mps 664 mmHg 63%
    21:00 +24°C° 0.6 mm 1 mps 664 mmHg 69%
    22:00 +23°C° 0.6 mm 1 mps 664 mmHg 75%
    23:00 +23°C° 0.2 mm 1 mps 664 mmHg 79%

    Mañana, 20 Octubre, Sábado

    Tiempo Temperatura Precipitaciones Viento Presión Humedad
    00:00 +23°C° 0.2 mm 1 mps 664 mmHg 83%
    01:00 +21°C° 0.2 mm 2 mps 664 mmHg 87%
    02:00 +21°C° 0 mm 2 mps 664 mmHg 89%
    03:00 +21°C° 0 mm 2 mps 664 mmHg 91%
    04:00 +20°C° 0 mm 2 mps 663 mmHg 94%
    05:00 +21°C° 0 mm 2 mps 664 mmHg 91%
    06:00 +21°C° 0 mm 2 mps 665 mmHg 89%
    07:00 +23°C° 0 mm 2 mps 665 mmHg 86%
    08:00 +25°C° 0.1 mm 1 mps 666 mmHg 77%
    09:00 +28°C° 0.1 mm 1 mps 667 mmHg 67%
    10:00 +30°C° 0.1 mm 1 mps 667 mmHg 57%
    11:00 +32°C° 0.2 mm 1 mps 667 mmHg 51%
    12:00 +33°C° 0.2 mm 1 mps 666 mmHg 46%
    13:00 +35°C° 0.2 mm 1 mps 666 mmHg 41%
    14:00 +34°C° 0 mm 1 mps 665 mmHg 41%
    15:00 +33°C° 0 mm 1 mps 664 mmHg 42%
    16:00 +32°C° 0 mm 1 mps 664 mmHg 43%
    17:00 +30°C° 0 mm 1 mps 664 mmHg 47%
    18:00 +29°C° 0 mm 1 mps 664 mmHg 52%
    19:00 +27°C° 0 mm 1 mps 664 mmHg 56%
    20:00 +26°C° 1.1 mm 1 mps 664 mmHg 65%
    21:00 +25°C° 1.1 mm 1 mps 664 mmHg 74%
    22:00 +23°C° 1.1 mm 1 mps 664 mmHg 84%
    23:00 +23°C° 0 mm 2 mps 664 mmHg 86%

    Pasado mañana, 21 Octubre, Domingo

    Tiempo Temperatura Precipitaciones Viento Presión Humedad
    00:00 +21°C° 0 mm 2 mps 664 mmHg 89%
    01:00 +21°C° 0 mm 2 mps 663 mmHg 92%
    02:00 +21°C° 0.8 mm 2 mps 663 mmHg 93%
    03:00 +21°C° 0.8 mm 2 mps 663 mmHg 94%
    04:00 +20°C° 0.8 mm 2 mps 663 mmHg 95%
    05:00 +21°C° 0.5 mm 2 mps 664 mmHg 93%
    06:00 +22°C° 0.5 mm 1 mps 665 mmHg 91%
    07:00 +23°C° 0.5 mm 1 mps 665 mmHg 89%
    08:00 +25°C° 0.6 mm 1 mps 666 mmHg 79%
    09:00 +28°C° 0.6 mm 1 mps 667 mmHg 68%
    10:00 +29°C° 0.6 mm 0 mps 668 mmHg 58%
    11:00 +31°C° 0.1 mm 1 mps 667 mmHg 54%
    12:00 +31°C° 0.1 mm 1 mps 666 mmHg 50%
    13:00 +31°C° 0.1 mm 1 mps 665 mmHg 46%
    14:00 +31°C° 0.2 mm 1 mps 665 mmHg 48%
    15:00 +30°C° 0.2 mm 1 mps 664 mmHg 50%
    16:00 +30°C° 0.2 mm 1 mps 664 mmHg 52%
    17:00 +28°C° 0.3 mm 1 mps 664 mmHg 58%
    18:00 +26°C° 0.3 mm 2 mps 664 mmHg 65%
    19:00 +25°C° 0.3 mm 2 mps 664 mmHg 71%
    20:00 +24°C° 2.5 mm 2 mps 664 mmHg 78%
    21:00 +23°C° 2.5 mm 1 mps 665 mmHg 84%
    22:00 +22°C° 2.5 mm 1 mps 665 mmHg 91%
    23:00 +22°C° 0.2 mm 1 mps 665 mmHg 91%

    22 Octubre, Lunes

    Tiempo Temperatura Precipitaciones Viento Presión Humedad
    00:00 +22°C° 0.2 mm 1 mps 664 mmHg 91%
    01:00 +22°C° 0.2 mm 1 mps 664 mmHg 92%
    02:00 +22°C° 0.1 mm 1 mps 664 mmHg 93%
    03:00 +21°C° 0.1 mm 1 mps 664 mmHg 93%
    04:00 +21°C° 0.1 mm 1 mps 664 mmHg 94%
    05:00 +22°C° 0.9 mm 1 mps 664 mmHg 92%
    06:00 +22°C° 0.9 mm 1 mps 665 mmHg 90%
    07:00 +23°C° 0.9 mm 1 mps 665 mmHg 87%
    08:00 +23°C° 1.2 mm 1 mps 666 mmHg 84%
    09:00 +24°C° 1.2 mm 1 mps 666 mmHg 81%
    10:00 +25°C° 1.2 mm 2 mps 666 mmHg 78%
    11:00 +26°C° 0.3 mm 2 mps 666 mmHg 70%
    12:00 +28°C° 0.3 mm 2 mps 665 mmHg 62%
    13:00 +29°C° 0.3 mm 1 mps 665 mmHg 54%
    14:00 +28°C° 0.2 mm 2 mps 664 mmHg 56%
    15:00 +28°C° 0.2 mm 2 mps 664 mmHg 57%
    16:00 +28°C° 0.2 mm 2 mps 664 mmHg 59%
    17:00 +26°C° 0.2 mm 2 mps 664 mmHg 66%
    18:00 +25°C° 0.2 mm 1 mps 664 mmHg 73%
    19:00 +23°C° 0.2 mm 1 mps 665 mmHg 79%
    20:00 +23°C° 0 mm 1 mps 665 mmHg 80%
    21:00 +23°C° 0 mm 1 mps 665 mmHg 80%
    22:00 +22°C° 0 mm 1 mps 665 mmHg 81%
    23:00 +22°C° 0.3 mm 1 mps 665 mmHg 84%

    23 Octubre, Martes

    Tiempo Temperatura Precipitaciones Viento Presión Humedad
    00:00 +21°C° 0.3 mm 1 mps 665 mmHg 87%
    01:00 +21°C° 0.3 mm 1 mps 664 mmHg 90%
    02:00 +21°C° 0.3 mm 1 mps 664 mmHg 91%
    03:00 +20°C° 0.3 mm 1 mps 664 mmHg 92%
    04:00 +20°C° 0.3 mm 1 mps 665 mmHg 93%
    05:00 +21°C° 0.1 mm 1 mps 665 mmHg 91%
    06:00 +21°C° 0.1 mm 1 mps 666 mmHg 89%
    07:00 +20°C° 0.1 mm 2 mps 667 mmHg 87%
    08:00 +23°C° 0.8 mm 2 mps 667 mmHg 82%
    09:00 +24°C° 0.8 mm 2 mps 667 mmHg 77%
    10:00 +26°C° 0.8 mm 2 mps 668 mmHg 72%
    11:00 +26°C° 0.7 mm 1 mps 667 mmHg 69%
    12:00 +26°C° 0.7 mm 1 mps 667 mmHg 65%
    13:00 +27°C° 0.7 mm 1 mps 666 mmHg 62%
    14:00 +26°C° 1 mm 1 mps 666 mmHg 66%
    15:00 +26°C° 1 mm 2 mps 665 mmHg 70%
    16:00 +25°C° 1 mm 2 mps 665 mmHg 74%
    17:00 +24°C° 0.5 mm 1 mps 665 mmHg 79%
    18:00 +23°C° 0.5 mm 1 mps 665 mmHg 84%
    19:00 +21°C° 0.5 mm 1 mps 665 mmHg 89%
    20:00 +21°C° 0 mm 1 mps 666 mmHg 89%
    21:00 +21°C° 0 mm 1 mps 666 mmHg 89%
    22:00 +21°C° 0 mm 1 mps 666 mmHg 89%
    23:00 +20°C° 0 mm 1 mps 666 mmHg 90%

    24 Octubre, Miércoles

    Tiempo Temperatura Precipitaciones Viento Presión Humedad
    00:00 +20°C° 0 mm 1 mps 666 mmHg 90%
    01:00 +20°C° 0 mm 1 mps 665 mmHg 90%
    02:00 +20°C° 0 mm 1 mps 665 mmHg 90%
    03:00 +19°C° 0 mm 1 mps 665 mmHg 91%
    04:00 +19°C° 0 mm 1 mps 665 mmHg 91%
    05:00 +20°C° 0 mm 1 mps 666 mmHg 89%
    06:00 +21°C° 0 mm 1 mps 666 mmHg 86%
    07:00 +21°C° 0 mm 1 mps 667 mmHg 84%
    08:00 +23°C° 0 mm 1 mps 667 mmHg 77%
    09:00 +24°C° 0 mm 1 mps 667 mmHg 70%
    10:00 +26°C° 0 mm 1 mps 667 mmHg 63%
    11:00 +27°C° 0 mm 1 mps 667 mmHg 58%
    12:00 +28°C° 0 mm 1 mps 666 mmHg 54%
    13:00 +29°C° 0 mm 1 mps 666 mmHg 49%
    14:00 +29°C° 0 mm 1 mps 665 mmHg 52%
    15:00 +28°C° 0 mm 1 mps 665 mmHg 54%
    16:00 +27°C° 0 mm 1 mps 664 mmHg 57%
    17:00 +26°C° 0.1 mm 1 mps 665 mmHg 61%
    18:00 +25°C° 0.1 mm 1 mps 665 mmHg 64%
    19:00 +22°C° 0.1 mm 0 mps 665 mmHg 68%
    20:00 +23°C° 0.2 mm 1 mps 665 mmHg 71%
    21:00 +22°C° 0.2 mm 1 mps 665 mmHg 74%
    22:00 +21°C° 0.2 mm 1 mps 665 mmHg 76%
    23:00 +21°C° 0 mm 1 mps 665 mmHg 78%
    Mostrar más